EHI
0 0 0 0 0 1 1 1 1 2 4 4 3 2 1 0 0 0 0 0 0 0 0 0 0 0 0 0 0 0 0 0 0 0 0 0 0 0 0 0 0 0 0 0
0 0 0 0 0 1 2 2 1 3 4 3 2 2 1 0 0 0 0 0 0 0 0 0 0 0 0 0 0 0 0 0 0 0 0 0 0 0 0 0 0 0 0 0
0 0 0 0 0 0 1 1 1 1 2 1 1 2 1 0 0 0 0 0 0 0 0 0 0 0 0 0 0 0 0 0 0 0 0 0 0 0 0 0 0 0 0 0
0 0 0 0 0 0 0 0 0 0 0 0 0 0 0 0 0 0 0 0 0 0 0 0 0 0 0 0 0 0 0 0 0 0 0 0 0 0 0 0 0 0 0 0
0 0 0 0 0 0 0 0 0 0 0 0 0 0 0 0 0 0 0 0 0 0 0 0 0 0 0 0 0 0 0 0 0 0 0 0 0 0 0 0 0 0 0 0
0 0 0 0 0 0 0 0 0 0 0 0 0 0 0 0 0 0 0 0 0 0 0 0 0 0 0 0 0 0 0 0 0 0 0 0 0 0 0 0 0 0 0 0
0 0 0 0 0 0 0 0 0 0 0 0 0 0 0 0 0 0 0 0 0 0 0 0 0 0 0 0 0 0 0 0 0 0 0 0 0 0 0 0 0 0 0 0
0 0 0 0 0 0 0 0 0 0 0 0 0 0 0 0 0 0 0 0 0 0 0 0 0 0 0 0 0 0 0 0 0 0 0 0 0 0 0 0 0 0 0 0
0 0 0 0 0 0 0 0 0 0 0 0 0 0 0 0 0 0 0 0 0 0 0 0 0 0 0 0 0 0 0 0 0 0 0 0 0 0 0 0 0 0 0 0
0 0 0 0 0 0 0 0 0 0 0 0 0 0 0 0 0 0 0 0 0 0 0 0 0 0 0 0 0 0 0 0 0 0 0 0 0 0 0 0 0 0 0 0
0 0 0 0 0 0 0 0 0 0 0 0 0 0 0 0 0 0 0 0 0 0 0 0 0 0 0 0 0 0 0 0 0 0 0 0 0 0 0 0 0 0 0 0
0 0 0 0 0 0 0 0 0 0 0 0 0 0 0 0 0 0 0 0 0 0 0 0 0 0 0 0 0 0 0 0 0 0 0 0 0 0 0 0 0 0 0 0
0 0 0 0 0 0 0 0 0 0 0 0 0 0 0 0 0 0 0 0 0 0 0 0 0 0 0 0 0 0 0 0 0 0 0 0 0 0 0 0 0 0 0 0
0 0 0 0 0 0 0 0 0 0 0 0 0 0 0 0 0 0 0 0 0 0 0 0 0 0 0 0 0 0 0 0 0 0 0 0 0 0 0 0 0 0 0 0
0 0 0 0 0 0 0 0 0 0 0 0 0 0 0 0 0 0 0 0 0 0 0 0 0 0 0 0 0 0 0 0 0 0 0 0 0 0 0 0 0 0 0 0
0 0 0 0 0 0 0 0 0 0 0 0 0 0 0 0 0 0 0 0 0 0 0 0 0 0 0 0 0 0 0 0 0 0 0 0 0 0 0 0 0 0 0 0
0 0 0 0 0 0 0 0 0 0 0 0 0 0 0 0 0 0 0 0 0 0 0 0 0 0 0 0 0 0 0 0 0 0 0 0 0 0 0 0 0 0 0 0
0 0 0 0 0 0 0 0 0 0 0 0 0 0 0 0 0 0 0 0 0 0 0 0 0 0 0 0 0 0 0 0 0 0 0 0 0 0 0 0 0 0 0 0
0 0 0 0 0 0 0 0 0 0 0 0 0 0 0 0 0 0 0 0 0 0 0 0 0 0 0 0 0 0 0 0 0 0 0 0 0 0 0 0 0 0 0 0
0 0 0 0 0 0 0 0 0 0 0 0 0 0 0 0 0 0 0 0 0 0 0 0 0 0 0 0 0 0 0 0 0 0 0 0 0 0 0 0 0 0 0 0
0 0 0 0 0 0 0 0 0 0 0 0 0 0 0 0 0 0 0 0 0 0 0 0 0 0 0 0 0 0 0 0 0 0 0 0 0 0 0 0 0 0 0 0
0 0 0 0 0 0 0 0 0 0 0 0 0 0 0 0 0 0 0 0 0 0 0 0 0 0 0 0 0 0 0 0 0 0 0 0 0 0 0 0 0 0 0 0
0 0 0 0 0 0 0 0 0 0 0 0 0 0 0 0 0 0 0 0 0 0 0 0 0 0 0 0 0 0 0 0 0 0 0 0 0 0 0 0 0 0 0 0
0 0 0 0 0 0 0 0 0 0 0 0 0 0 0 0 0 0 0 0 0 0 0 0 0 0 0 0 0 0 0 0 0 0 0 0 0 0 0 0 0 0 0 0
0 0 0 0 0 0 0 0 0 0 0 0 0 0 0 0 0 0 0 0 0 0 0 0 0 0 0 0 0 0 0 0 0 0 0 0 0 0 0 0 0 0 0 0
0 0 0 0 0 0 0 0 0 0 0 0 0 0 0 0 0 0 0 0 0 0 0 0 0 0 0 0 0 0 0 0 0 0 0 0 0 0 0 0 0 0 0 0
0 0 0 0 0 0 0 0 0 0 0 0 0 0 0 0 0 0 0 0 0 0 0 0 0 0 0 0 0 0 0 0 0 0 0 0 0 0 0 0 0 0 0 0
Wind_Speed
7 7 6 7 6 5 3 5 3 6 10 11 11 11 12 13 13 13 12 12 12 12 11 12 12 12 12 12 12 12 13 13 13 12 11 11 11 10 9 9 9 8 7 7
6 7 8 10 9 7 7 6 7 11 9 9 11 11 12 12 12 13 12 13 13 12 12 11 11 11 11 11 11 11 12 12 11 11 11 10 10 9 8 8 7 7 6 6
4 4 4 5 8 7 7 7 4 5 8 11 11 11 11 11 12 12 13 12 12 11 10 10 9 10 10 10 10 10 11 10 10 10 10 9 9 8 8 7 6 6 5 5
3 5 2 6 5 6 7 8 8 11 11 11 11 10 9 10 12 13 13 12 11 11 10 9 9 9 9 10 10 10 9 9 9 9 9 8 8 7 6 5 5 5 5 5
2 2 6 6 2 2 2 6 7 11 13 13 14 13 9 9 10 12 12 11 10 10 10 10 9 9 9 9 9 9 9 9 8 8 8 7 7 6 5 4 4 4 5 5
1 1 2 6 4 2 2 5 7 10 12 12 10 6 6 9 12 12 12 10 10 10 10 10 8 8 9 9 9 8 8 8 7 7 7 6 6 4 4 3 3 4 4 5
1 1 6 6 2 3 3 5 9 8 9 8 4 8 12 12 12 12 11 11 10 10 9 9 8 8 8 8 8 8 7 7 7 6 5 4 3 3 2 3 3 3 4 3
1 1 6 5 0 2 6 8 9 9 10 12 15 16 14 13 13 12 12 11 10 9 9 8 7 8 8 8 7 7 6 6 5 3 2 2 2 2 2 3 2 2 3 3
6 7 7 5 6 6 7 10 10 11 13 16 16 15 14 13 12 11 11 10 9 10 9 8 7 7 8 7 6 5 5 4 3 2 1 1 2 2 2 2 3 4 4 4
6 8 8 7 8 7 8 9 11 13 15 16 16 15 14 12 11 11 10 9 9 9 9 8 7 7 7 6 4 4 3 2 1 1 1 1 2 3 3 4 5 5 5 5
7 9 9 7 8 9 10 11 13 13 14 15 16 15 14 12 11 10 9 8 8 8 9 8 7 7 6 5 4 3 2 1 0 0 2 1 2 5 5 7 7 7 7 6
4 9 7 10 9 11 12 13 14 14 14 14 14 14 14 12 11 10 10 9 8 9 8 8 7 6 5 4 3 2 2 1 1 0 1 1 2 4 6 5 4 3 4 6
7 9 10 13 12 11 12 13 14 14 15 15 14 14 13 12 11 10 10 9 9 8 7 6 5 4 3 2 1 1 1 1 2 1 1 1 1 1 3 5 4 3 1 2
12 13 14 13 12 13 14 14 15 15 14 14 13 13 13 12 11 11 10 9 8 7 6 4 3 3 2 1 2 2 2 1 2 1 1 1 1 1 2 2 2 3 5 2
10 9 13 14 14 15 15 16 16 15 14 14 13 13 13 12 11 10 9 8 6 5 4 3 2 2 1 1 1 2 2 1 1 1 0 1 1 1 2 2 2 2 2 4
11 13 16 17 17 16 16 17 16 15 15 14 13 13 12 11 10 9 8 6 5 4 3 2 2 1 0 1 2 2 1 3 2 1 1 2 1 1 2 2 2 3 3 4
16 16 17 17 17 17 16 15 15 15 15 14 14 13 12 11 10 8 7 5 4 4 3 1 1 1 0 0 2 2 1 5 4 3 1 2 2 2 2 2 2 2 4 5
13 15 16 17 16 16 16 15 15 15 14 14 14 12 11 10 9 8 6 5 4 4 3 2 2 1 1 0 1 2 1 2 3 2 3 2 1 2 2 2 2 2 2 3
13 15 16 16 16 16 15 15 15 15 14 14 13 12 10 9 7 7 5 5 4 4 4 4 1 2 0 2 2 3 1 2 3 3 3 3 2 1 2 2 2 2 2 2
15 16 16 16 16 16 16 15 15 14 14 13 12 11 10 8 7 6 5 3 1 3 4 2 2 1 1 2 4 2 2 2 3 3 2 2 2 2 2 2 2 2 2 2
17 17 17 17 16 16 16 16 15 15 14 13 12 11 9 8 6 5 4 4 5 3 3 4 2 1 1 1 5 2 2 3 2 3 2 2 2 2 2 2 2 2 2 3
17 17 17 17 16 15 15 15 15 15 14 12 12 11 10 8 7 5 2 3 6 3 3 4 3 4 3 5 3 2 3 3 3 3 2 2 2 2 3 2 2 2 2 3
16 16 17 17 16 16 16 15 15 14 13 12 11 10 9 7 5 5 6 5 5 4 2 4 6 3 4 6 1 2 3 3 2 3 3 3 3 3 3 2 2 2 2 3
16 16 16 16 16 16 16 15 14 12 12 11 10 10 8 6 5 3 5 7 5 4 3 7 4 2 7 4 1 2 3 3 3 3 3 3 3 3 3 2 2 2 2 3
16 16 17 17 16 14 15 15 14 14 13 10 11 10 8 5 5 5 6 8 8 6 5 7 6 5 6 1 2 2 2 2 2 2 3 2 2 3 3 2 2 2 2 3
15 14 13 14 12 12 12 12 11 11 11 10 9 9 7 5 5 6 5 7 8 6 4 4 6 7 3 2 3 3 4 5 4 3 3 2 3 2 2 2 2 2 2 3
15 13 12 12 12 12 12 12 11 11 10 10 10 9 8 7 6 6 7 6 6 6 4 3 3 3 2 3 4 4 3 3 3 3 3 3 3 3 3 2 1 2 1 2
Wind_Direction
76 82 81 70 54 38 6 342 311 110 125 136 133 127 123 121 118 113 109 104 100 96 94 91 89 88 87 87 86 88 89 88 89 90 91 91 89 88 87 86 87 87 85 81
110 109 96 69 47 46 42 41 91 108 95 105 113 114 118 122 122 118 114 110 107 105 100 96 95 96 95 92 92 94 94 95 97 97 96 95 95 94 91 88 85 81 72 67
152 152 183 78 34 42 61 44 76 99 106 119 115 115 121 123 120 117 115 113 110 107 103 102 103 104 103 101 100 97 96 98 100 100 98 98 98 95 91 87 79 68 60 54
160 198 187 86 64 66 80 60 66 95 110 113 106 98 100 115 121 121 120 118 115 114 111 109 109 108 108 106 104 103 102 101 102 102 99 98 95 90 83 75 64 54 42 36
238 151 114 133 114 9 56 85 94 112 114 113 115 102 84 94 108 114 116 115 115 117 118 117 115 116 114 110 109 107 104 101 101 102 103 100 92 84 70 56 45 34 35 22
255 226 109 97 66 351 211 127 126 131 135 142 150 127 109 110 109 110 111 115 118 119 118 115 117 121 118 114 112 107 104 103 104 100 96 90 80 69 58 38 27 14 28 18
55 89 87 59 20 239 251 111 137 139 139 142 114 101 120 121 114 114 116 118 120 119 117 121 127 126 119 116 111 109 108 108 104 99 94 84 70 51 25 11 18 7 9 11
325 82 86 47 277 19 73 111 131 131 123 111 107 113 121 122 121 122 121 122 123 122 121 125 130 129 121 116 117 116 114 112 107 98 79 76 48 22 2 345 336 354 359 356
32 58 78 66 68 81 112 122 126 124 123 123 124 126 126 125 124 124 123 124 129 128 126 128 133 131 123 122 128 128 125 117 108 93 62 24 344 342 334 341 345 358 1 7
112 107 106 101 102 105 112 120 121 125 130 131 129 129 128 127 126 126 127 131 135 134 130 128 128 124 123 128 134 135 129 123 134 144 111 62 342 350 355 3 2 2 6 11
121 128 130 120 116 117 115 118 120 126 130 132 132 133 132 130 130 129 130 131 133 131 127 126 129 130 133 137 149 143 137 141 207 84 54 39 50 29 9 43 29 359 4 1
142 157 154 138 133 131 129 128 129 130 129 132 134 134 133 131 130 131 130 131 131 130 131 132 135 136 136 141 155 178 189 193 265 320 62 20 108 119 72 53 82 50 9 346
106 130 120 128 134 134 131 130 132 133 133 134 134 134 132 130 132 132 134 135 133 132 130 132 136 136 135 149 179 211 276 313 312 345 47 48 29 55 132 144 173 189 223 335
123 124 127 135 135 134 132 131 131 130 131 132 134 135 134 135 136 137 137 135 133 133 133 133 135 124 120 161 217 242 256 188 274 298 336 32 41 39 47 70 125 142 167 182
143 139 136 134 133 134 135 135 134 134 135 136 139 140 141 140 139 139 137 137 141 146 139 129 120 111 125 228 243 259 275 324 350 14 60 80 73 69 69 58 51 53 78 129
138 133 137 140 141 143 145 145 141 141 143 143 144 144 143 140 139 139 143 151 158 146 125 120 113 101 184 245 254 222 161 61 310 246 140 120 110 91 82 68 56 52 51 35
146 149 151 150 150 152 152 150 147 146 147 147 145 145 145 144 145 148 154 154 142 126 131 133 85 49 275 192 273 262 139 135 189 223 131 101 96 88 85 66 59 63 68 55
157 156 157 155 154 153 151 149 148 148 149 147 146 149 152 154 154 151 150 148 153 155 144 127 75 350 4 4 300 301 230 165 165 120 113 99 80 99 91 79 72 62 81 119
148 151 153 153 153 152 151 150 150 149 148 150 153 154 155 155 152 149 154 168 180 168 138 119 115 251 147 70 300 224 207 152 136 128 118 129 195 112 91 79 73 68 64 49
147 149 150 151 153 152 151 150 149 148 152 155 155 155 157 154 153 154 164 173 113 78 116 119 195 184 156 123 279 244 147 147 140 137 138 146 126 115 109 91 80 72 54 45
149 150 152 153 153 153 152 151 152 153 156 159 159 159 156 154 158 165 189 152 126 129 143 165 214 180 130 63 248 230 150 138 140 136 132 126 121 119 108 98 90 75 52 38
153 155 156 153 153 152 153 155 155 156 157 161 162 160 157 159 160 157 138 90 121 154 205 164 121 68 25 285 233 155 139 137 140 132 127 126 125 124 113 105 94 73 49 34
155 156 156 156 155 153 155 158 158 159 162 164 163 164 167 166 166 166 144 140 145 168 198 95 89 102 290 258 201 148 140 147 147 141 141 139 132 128 121 112 91 64 38 26
154 157 157 156 155 156 160 161 159 162 165 167 165 167 169 167 167 150 113 124 133 169 151 110 141 208 264 252 174 155 151 159 164 156 147 143 135 135 127 115 93 69 51 34
156 157 158 159 162 163 162 161 161 166 170 171 167 170 179 180 162 142 141 150 158 196 170 147 179 231 251 214 145 151 141 110 100 127 139 143 149 134 120 110 91 68 52 45
158 161 161 168 166 163 164 167 169 172 175 172 171 172 170 164 156 151 164 168 170 202 218 167 172 210 216 150 136 126 124 140 165 183 146 159 145 133 127 117 107 70 57 56
160 159 163 169 169 172 171 173 174 176 178 176 172 171 171 171 173 172 174 175 176 191 197 185 180 179 164 154 139 145 152 151 152 152 156 161 153 155 146 153 134 102 96 86